Wetbulb
59.18 58.63 58.29 58.01 58.74 58.77 59.07 59.42 59.80 60.01 60.28 60.31 61.51 62.78 62.09 61.41 60.41 57.60 53.23 57.25 58.32 60.51 61.29 59.69 58.13 58.03 58.70 56.20 56.97 56.36 49.88 46.85 48.38 49.83 52.48 54.81 53.14 54.40 54.87 53.90 54.40 55.53 55.33 57.72 61.49
59.04 58.44 58.28 57.78 56.24 58.16 59.24 59.02 58.89 59.42 59.99 59.57 61.59 62.21 61.42 60.66 56.67 53.67 58.22 59.67 60.09 60.50 57.61 56.41 54.27 56.12 53.59 53.83 54.81 53.25 48.52 48.56 53.07 53.31 53.13 53.85 53.82 53.32 52.58 52.89 52.95 53.13 54.59 56.91 58.91
58.51 57.92 57.96 58.05 57.80 56.71 58.36 57.62 57.27 58.91 59.84 60.22 60.68 60.78 60.52 58.98 52.07 51.99 59.69 58.01 59.22 60.59 58.65 56.98 56.64 55.18 51.50 53.30 52.63 52.38 49.76 51.63 50.70 51.92 54.16 52.84 52.01 52.85 51.97 50.99 52.61 52.02 53.87 55.24 56.61
58.30 57.05 57.03 58.16 57.63 57.31 58.74 58.08 58.35 59.39 59.61 59.36 58.88 57.83 58.89 55.86 42.21 52.89 57.03 56.93 58.59 60.00 56.80 54.31 54.53 51.65 50.21 48.83 52.24 49.35 49.89 51.41 50.33 49.09 51.36 51.58 52.48 50.98 51.54 51.76 51.16 51.53 52.70 54.82 55.41
57.32 56.53 56.77 57.76 58.39 58.33 58.26 58.83 58.90 58.69 58.47 57.91 57.88 58.13 52.61 47.28 48.06 53.95 54.36 55.90 57.37 57.43 54.05 53.53 52.56 51.29 48.33 49.56 50.50 49.85 49.19 48.59 47.61 47.97 47.96 48.00 49.28 49.29 48.16 50.27 49.94 49.92 49.86 52.15 54.41
56.75 56.80 57.41 57.35 57.81 57.90 58.35 58.58 58.42 58.38 57.19 56.50 56.48 56.12 49.00 42.22 53.21 54.13 53.51 53.17 55.45 55.57 53.72 54.07 53.07 52.53 49.92 49.37 48.87 50.68 49.30 47.29 47.06 46.69 47.31 46.76 46.94 46.35 48.29 49.28 48.48 48.42 49.03 51.03 53.28
57.08 56.97 57.34 55.78 56.05 58.21 58.24 58.28 58.06 58.56 56.88 54.93 56.40 54.43 46.32 46.77 53.83 54.43 53.37 53.43 54.47 54.86 52.64 53.20 52.58 50.54 51.07 47.40 49.42 49.01 45.86 46.71 46.69 47.31 46.87 47.69 45.44 45.58 48.64 48.85 48.80 49.31 49.73 50.45 50.95
57.04 56.81 56.70 56.82 56.45 56.37 56.81 56.48 56.59 57.44 57.83 57.37 57.32 52.11 45.05 52.75 55.44 53.27 53.97 52.38 53.52 53.43 52.50 52.03 52.56 50.32 49.85 49.31 47.18 46.06 46.80 43.59 46.23 46.95 47.18 47.24 44.60 47.37 48.79 48.30 48.53 49.62 49.97 50.88 51.27
56.92 56.54 56.82 56.97 56.67 56.56 56.69 56.24 56.18 55.66 56.05 57.05 51.73 48.06 44.04 53.52 51.04 53.57 54.13 51.39 52.57 52.93 52.20 51.41 52.05 48.70 47.69 46.11 43.94 44.54 41.64 43.13 43.40 46.39 46.07 46.25 45.81 47.23 48.36 48.29 48.20 49.19 49.85 50.74 51.36
56.48 56.24 56.12 55.72 55.49 55.70 55.83 56.13 55.59 55.55 54.49 53.04 50.80 45.80 47.84 46.93 51.33 52.57 54.10 52.99 51.03 50.87 49.66 49.31 49.49 46.52 46.75 45.50 39.45 41.19 41.76 42.44 43.11 44.60 44.99 44.89 45.04 47.94 47.83 47.90 48.20 48.57 49.82 50.37 50.60
56.19 56.24 55.58 55.39 55.37 55.08 54.67 54.58 49.59 48.71 50.35 46.24 46.31 46.09 48.10 51.51 53.05 51.67 52.95 51.28 50.99 49.20 45.12 47.06 47.62 43.83 44.80 45.12 43.86 44.69 43.28 42.34 43.07 43.88 42.50 44.24 44.66 46.18 48.16 48.15 47.48 48.70 49.38 49.39 49.18
55.77 55.93 56.28 56.03 54.90 54.53 54.85 50.05 48.05 50.16 44.00 48.65 48.99 48.99 50.54 51.23 47.15 50.15 53.48 47.56 47.04 44.13 45.23 44.74 43.78 44.15 44.14 44.02 44.01 43.68 42.30 41.86 42.55 42.94 42.03 43.65 43.01 45.99 47.20 46.87 48.27 48.71 48.88 48.97 49.30
55.38 55.77 55.75 55.10 54.61 54.30 53.02 50.18 53.00 51.66 44.58 44.44 47.89 47.76 48.08 50.64 46.57 47.33 50.75 47.80 45.55 43.36 43.82 44.40 42.75 43.68 43.15 42.67 42.51 42.26 41.58 40.89 40.53 42.58 43.01 41.33 42.74 44.35 45.55 46.90 47.54 48.27 49.53 49.82 49.41
54.87 55.23 54.66 54.59 51.59 52.40 50.36 52.49 53.77 51.47 42.46 40.67 44.48 47.05 48.75 48.72 44.27 49.83 50.20 48.01 45.10 43.28 44.42 42.61 43.40 41.66 42.12 40.44 41.55 39.82 41.91 40.95 40.11 40.58 39.37 41.84 36.79 43.47 45.63 44.83 45.99 48.00 48.84 49.45 50.02
54.32 53.61 53.37 54.34 53.16 49.92 51.16 53.29 53.05 50.39 32.65 41.67 43.81 51.15 49.15 45.57 45.86 46.09 50.30 48.81 43.30 41.45 43.05 38.87 41.12 41.19 40.99 39.69 41.89 40.49 42.19 40.88 40.45 40.11 38.52 39.89 37.57 42.75 41.93 41.70 44.59 47.16 48.68 49.28 49.85
53.95 52.89 53.09 53.71 53.93 50.89 52.59 51.63 50.04 41.74 31.27 37.95 43.65 42.66 43.23 45.10 43.99 45.81 46.10 48.68 47.43 43.84 43.62 41.32 44.41 43.07 41.58 42.02 42.84 42.63 40.51 39.88 40.48 39.78 36.15 37.74 37.51 40.91 43.03 42.80 45.22 47.05 47.62 48.23 48.52
53.08 52.10 53.45 53.41 50.61 53.17 52.44 49.69 42.68 34.75 37.89 36.74 39.59 41.47 41.65 40.67 41.80 42.62 42.10 41.74 40.82 36.91 36.83 39.97 39.83 42.62 43.57 41.00 41.92 40.88 39.62 39.23 37.71 37.04 35.90 35.48 34.99 41.29 43.37 44.14 45.20 46.40 47.04 47.81 48.21
51.36 50.69 50.71 51.12 54.28 53.31 50.37 43.58 35.16 33.71 35.94 40.81 40.23 41.20 38.28 40.54 40.08 41.10 40.49 39.17 40.77 40.75 39.65 37.56 34.74 39.63 42.07 40.74 40.12 39.26 38.68 38.73 31.07 32.89 35.31 33.78 33.55 41.79 43.00 44.28 45.68 47.31 48.24 48.21 46.93
51.69 53.86 53.12 51.51 52.79 53.28 47.43 39.03 34.75 37.20 39.49 39.64 39.49 38.04 37.79 39.69 40.23 40.93 40.27 39.68 39.79 40.32 38.64 36.29 35.05 40.86 41.42 42.39 41.08 38.57 36.25 37.78 34.91 34.09 32.14 37.18 39.95 41.82 41.95 42.03 44.36 45.28 46.96 46.87 46.22
53.81 51.32 50.40 51.13 52.35 49.86 45.53 35.99 38.22 40.91 41.74 41.23 37.63 39.07 36.82 38.07 38.45 39.53 39.27 40.45 39.25 40.56 41.57 39.01 34.68 38.46 40.02 41.94 40.99 38.88 39.50 34.94 35.99 29.31 28.86 35.38 35.77 39.53 40.84 40.27 43.50 44.76 45.32 46.82 46.64
52.58 49.64 51.12 50.94 50.30 48.22 40.48 38.11 40.13 42.16 42.16 40.20 38.72 37.97 38.60 37.98 38.87 38.01 38.14 39.65 41.15 40.01 40.93 38.87 37.30 34.74 38.45 37.25 37.97 36.43 35.94 36.12 35.64 34.59 31.29 30.90 36.60 41.27 39.75 42.24 42.78 45.40 46.76 47.50 46.86
54.01 47.37 52.60 50.59 46.06 45.09 40.30 41.16 41.59 40.58 42.91 41.62 41.70 40.17 38.97 38.41 37.75 37.70 37.52 39.89 42.30 41.32 37.99 38.93 37.47 34.40 35.47 37.99 39.16 39.23 38.06 38.38 33.01 32.48 33.53 31.78 32.94 40.99 41.78 42.42 43.01 45.22 47.17 48.56 48.79
50.71 49.83 54.94 50.72 41.49 40.47 40.51 39.55 40.70 40.03 39.81 40.12 39.22 40.28 40.18 38.07 35.80 37.85 38.42 41.25 42.29 40.65 38.86 39.75 36.09 32.67 31.94 34.67 37.09 35.68 37.71 38.17 36.08 35.22 31.80 30.56 34.43 41.45 43.21 43.66 44.12 43.89 45.00 46.66 48.40
50.99 47.17 50.35 48.89 45.90 42.20 39.53 37.92 37.77 40.99 39.73 39.54 38.83 39.70 38.57 37.22 38.37 36.29 36.99 39.68 41.42 41.34 38.87 40.07 36.55 34.76 33.32 33.80 37.57 33.43 35.59 36.82 35.73 32.28 33.05 33.76 35.98 39.50 41.56 42.88 44.44 44.31 45.24 45.58 45.87
49.19 44.52 43.95 43.76 43.46 42.54 41.89 39.77 37.35 36.77 39.91 40.32 37.85 37.82 36.46 34.44 35.17 35.04 36.75 37.67 39.54 40.12 39.96 39.09 33.74 34.05 33.71 35.37 34.70 34.51 35.04 35.93 32.75 34.73 32.81 36.05 37.55 41.39 43.03 42.39 42.72 44.08 44.01 43.36 43.60
48.28 47.41 47.22 45.04 43.71 43.50 41.29 39.50 38.70 38.71 39.10 38.22 37.36 38.32 38.56 35.92 36.12 34.66 36.51 36.80 36.68 39.02 38.16 38.83 33.31 33.86 32.68 36.97 35.90 32.55 35.20 35.81 36.28 36.34 36.08 36.74 36.54 43.34 42.49 43.04 41.73 41.85 41.60 41.44 41.75
49.68 48.72 47.88 41.33 43.74 43.34 41.86 40.43 39.64 40.56 40.82 41.50 40.76 40.23 39.01 39.58 41.38 41.74 41.75 40.43 39.75 38.93 37.82 36.97 35.25 34.04 33.25 35.47 35.70 33.19 37.11 37.77 37.74 38.71 37.44 33.72 38.89 39.36 38.82 39.01 39.49 40.23 41.12 41.22 42.08
MSLP
1013.42 1013.21 1013.06 1012.98 1012.85 1012.79 1012.84 1012.93 1012.97 1013.08 1013.36 1013.53 1013.56 1013.74 1014.33 1014.76 1015.17 1015.22 1014.01 1013.33 1013.38 1013.86 1013.80 1013.09 1013.03 1012.66 1012.10 1011.72 1011.74 1011.48 1010.12 1008.25 1007.56 1007.43 1007.86 1009.26 1009.52 1010.30 1010.76 1010.55 1011.03 1011.52 1012.07 1013.23 1013.84
1013.70 1013.42 1013.16 1012.91 1012.83 1012.64 1012.63 1012.88 1013.01 1013.07 1013.29 1013.34 1013.34 1013.79 1014.44 1014.88 1014.71 1013.89 1013.46 1013.46 1013.62 1013.70 1013.29 1012.68 1012.28 1012.15 1011.66 1011.25 1011.37 1010.92 1009.95 1008.71 1008.61 1008.92 1008.85 1009.60 1009.69 1010.35 1010.72 1010.81 1011.09 1011.89 1013.09 1013.77 1014.36
1014.00 1013.70 1013.33 1012.87 1012.56 1012.59 1012.76 1012.95 1013.24 1013.32 1013.30 1013.35 1013.54 1014.18 1014.74 1015.04 1014.17 1012.55 1013.08 1013.59 1013.62 1013.64 1013.14 1012.69 1011.79 1011.72 1011.06 1010.96 1010.95 1010.60 1010.17 1010.08 1010.49 1010.72 1010.02 1010.32 1010.53 1010.84 1010.72 1010.82 1010.79 1011.50 1012.34 1013.68 1014.21
1014.04 1013.80 1013.58 1012.97 1012.50 1012.76 1012.86 1012.98 1013.17 1013.37 1013.39 1013.77 1014.27 1014.90 1015.04 1015.41 1013.42 1012.37 1013.25 1013.60 1013.53 1013.29 1013.17 1012.72 1011.92 1011.33 1010.74 1010.48 1010.52 1010.77 1011.22 1011.31 1011.83 1012.04 1011.49 1011.06 1011.02 1011.02 1011.13 1011.28 1012.03 1012.57 1013.06 1013.43 1013.96
1014.20 1013.95 1013.76 1013.39 1013.24 1013.09 1013.16 1013.34 1013.57 1014.06 1014.14 1014.29 1014.88 1015.30 1015.47 1015.15 1012.67 1012.95 1013.36 1013.53 1013.30 1013.23 1012.69 1012.27 1011.49 1010.86 1010.22 1010.02 1010.57 1010.45 1011.52 1012.33 1012.87 1012.69 1012.55 1012.30 1011.77 1011.40 1011.39 1011.68 1012.41 1012.79 1013.28 1013.42 1013.56
1014.53 1014.18 1014.11 1013.92 1013.66 1013.68 1013.80 1013.86 1014.11 1014.42 1014.92 1014.90 1015.30 1015.86 1016.38 1014.13 1012.60 1012.66 1012.95 1013.09 1012.70 1012.74 1012.45 1012.15 1011.16 1010.57 1010.14 1010.43 1010.36 1010.88 1011.70 1012.59 1013.08 1013.10 1013.07 1012.69 1012.10 1012.19 1011.30 1012.01 1012.49 1012.85 1013.06 1013.30 1013.50
1014.95 1014.72 1014.31 1014.01 1014.13 1014.14 1014.10 1014.22 1014.20 1014.74 1015.34 1014.79 1015.66 1015.88 1015.19 1013.10 1012.61 1012.62 1012.88 1012.47 1012.60 1012.39 1012.19 1012.13 1011.91 1011.34 1010.80 1011.10 1011.36 1011.22 1011.86 1012.58 1013.09 1013.33 1013.29 1013.16 1012.01 1011.53 1011.34 1012.02 1012.16 1012.44 1012.88 1013.23 1013.43
1015.04 1015.09 1014.87 1014.72 1014.52 1014.50 1014.38 1014.48 1014.58 1014.91 1015.21 1015.01 1015.39 1015.67 1013.53 1012.76 1012.53 1012.72 1012.51 1012.57 1012.71 1012.65 1012.50 1012.53 1012.29 1011.81 1011.04 1011.43 1011.34 1010.94 1011.34 1011.86 1012.84 1013.34 1013.57 1013.26 1011.04 1010.85 1011.55 1011.82 1011.82 1011.96 1012.34 1012.94 1013.27
1015.17 1014.96 1014.69 1014.87 1014.66 1014.63 1014.39 1014.40 1014.49 1014.59 1014.85 1014.99 1015.17 1014.50 1012.62 1012.93 1012.75 1012.71 1012.02 1011.97 1012.36 1012.43 1012.64 1012.61 1012.39 1011.86 1011.88 1010.82 1010.57 1010.67 1010.03 1010.94 1012.52 1013.35 1013.32 1012.90 1010.97 1011.06 1011.61 1011.62 1011.54 1011.67 1011.86 1012.58 1013.27
1015.37 1015.09 1014.71 1014.42 1014.42 1014.29 1014.08 1014.10 1014.12 1014.44 1014.59 1014.38 1013.75 1013.48 1012.85 1012.84 1012.80 1012.74 1012.38 1012.10 1011.90 1012.18 1012.49 1012.33 1012.07 1011.58 1011.14 1010.25 1009.44 1009.43 1009.75 1010.73 1011.46 1013.13 1013.07 1012.37 1011.33 1010.87 1011.32 1011.37 1011.28 1011.43 1011.86 1012.62 1013.32
1015.37 1015.20 1015.00 1014.56 1014.53 1014.53 1014.28 1014.07 1014.34 1013.69 1013.34 1013.47 1013.05 1012.60 1012.68 1013.06 1013.24 1012.60 1012.30 1011.95 1011.81 1011.68 1011.64 1012.16 1012.04 1011.48 1011.16 1010.81 1010.00 1009.36 1009.82 1010.45 1011.96 1013.14 1013.13 1011.92 1011.18 1010.67 1010.60 1010.83 1011.23 1011.34 1011.96 1012.74 1013.35
1015.26 1014.92 1015.07 1014.97 1014.53 1014.30 1013.96 1013.53 1014.26 1014.36 1013.78 1013.44 1013.19 1013.01 1013.26 1013.25 1012.56 1012.46 1012.09 1011.74 1011.73 1011.74 1012.12 1012.36 1012.48 1013.09 1012.86 1011.97 1011.02 1010.74 1010.80 1011.29 1012.45 1013.11 1013.12 1011.72 1010.78 1010.24 1010.20 1010.99 1011.59 1011.82 1012.31 1012.97 1013.98
1015.35 1014.55 1015.05 1014.71 1014.55 1014.33 1013.89 1014.48 1014.66 1014.40 1013.41 1013.58 1013.36 1013.13 1013.24 1012.99 1012.88 1012.91 1012.31 1012.33 1012.11 1012.32 1012.38 1012.58 1014.09 1014.32 1013.42 1012.75 1012.14 1012.24 1012.04 1012.46 1013.07 1013.14 1013.06 1012.41 1010.16 1010.00 1010.83 1011.44 1012.25 1012.69 1012.88 1013.34 1014.05
1015.32 1014.74 1014.80 1014.34 1014.68 1014.41 1014.46 1014.91 1014.77 1014.53 1013.64 1013.87 1013.17 1013.30 1013.06 1012.99 1013.43 1013.65 1013.47 1013.13 1013.09 1013.22 1013.59 1014.41 1015.21 1014.72 1014.22 1014.08 1013.95 1013.59 1014.28 1014.06 1013.87 1013.52 1012.80 1012.76 1010.73 1009.62 1010.36 1011.20 1012.07 1012.56 1013.11 1013.61 1014.26
1015.32 1014.78 1014.94 1014.39 1014.31 1014.45 1015.36 1015.09 1014.84 1014.66 1014.34 1014.50 1013.63 1013.41 1013.11 1013.04 1013.53 1013.78 1013.89 1013.24 1013.49 1014.20 1014.75 1015.90 1015.73 1015.50 1015.28 1015.83 1015.47 1015.38 1015.44 1015.05 1014.78 1014.26 1014.00 1012.94 1012.50 1010.05 1010.73 1011.01 1011.54 1012.22 1012.98 1013.80 1014.58
1015.45 1014.89 1014.73 1014.32 1014.47 1015.48 1015.52 1015.31 1015.07 1014.70 1014.95 1014.65 1013.99 1013.41 1012.92 1013.05 1013.55 1013.85 1013.77 1013.75 1014.54 1014.56 1015.26 1016.27 1016.79 1016.76 1016.81 1016.90 1016.38 1016.41 1015.97 1015.61 1015.28 1014.87 1014.45 1013.43 1013.08 1010.69 1010.30 1011.07 1011.17 1012.11 1013.06 1014.00 1014.95
1015.72 1015.32 1014.60 1014.66 1014.81 1015.21 1015.26 1014.81 1014.60 1014.68 1015.53 1014.87 1014.28 1013.80 1013.34 1013.57 1013.70 1013.78 1013.72 1013.92 1014.41 1015.18 1015.72 1016.28 1016.98 1017.51 1017.55 1017.19 1017.23 1016.83 1016.19 1015.75 1015.46 1015.06 1014.32 1014.17 1013.66 1010.95 1011.23 1011.67 1011.92 1012.21 1013.03 1014.14 1015.08
1015.69 1015.64 1015.51 1015.34 1015.29 1014.98 1014.74 1014.43 1014.63 1015.50 1015.30 1015.31 1014.51 1013.98 1013.81 1014.06 1014.13 1013.95 1013.84 1014.33 1015.09 1015.00 1015.19 1016.00 1017.47 1017.73 1018.03 1017.74 1017.22 1016.93 1016.52 1015.74 1014.97 1014.24 1013.62 1014.08 1012.47 1011.23 1011.97 1012.40 1012.71 1012.74 1013.29 1014.35 1015.18
1015.82 1015.52 1015.20 1015.53 1015.58 1015.23 1014.41 1014.57 1015.95 1015.84 1015.80 1014.99 1014.49 1013.74 1013.95 1013.98 1013.86 1013.76 1014.24 1014.67 1015.43 1015.67 1015.37 1015.65 1017.12 1018.19 1018.38 1018.21 1018.09 1017.25 1016.90 1016.46 1015.32 1014.69 1013.87 1012.11 1011.33 1011.71 1012.37 1012.77 1013.18 1013.51 1013.95 1014.75 1015.32
1015.13 1015.15 1015.55 1015.88 1015.77 1015.18 1014.49 1015.74 1016.48 1016.88 1016.42 1015.66 1014.35 1014.20 1013.53 1013.87 1013.88 1014.03 1014.62 1015.69 1015.91 1016.31 1016.20 1015.53 1016.68 1018.05 1018.53 1018.56 1018.43 1017.91 1017.49 1016.65 1015.78 1014.50 1012.97 1011.38 1011.43 1011.67 1012.58 1012.97 1013.42 1013.86 1014.29 1014.59 1014.94
1015.14 1014.43 1015.54 1015.81 1015.68 1014.71 1015.00 1016.32 1016.88 1017.04 1016.77 1015.95 1015.20 1014.60 1014.32 1014.16 1014.26 1014.48 1015.19 1016.31 1016.47 1016.46 1016.29 1016.18 1016.18 1018.11 1018.38 1018.19 1017.59 1018.03 1017.28 1016.87 1016.25 1014.96 1013.46 1012.02 1011.65 1011.97 1012.65 1013.02 1013.20 1013.36 1013.69 1013.93 1014.39
1014.65 1014.20 1015.05 1015.50 1014.97 1014.85 1015.74 1016.50 1017.18 1016.98 1016.68 1016.27 1015.82 1015.45 1015.08 1015.07 1014.94 1015.24 1015.72 1016.59 1017.23 1017.13 1016.53 1016.75 1016.44 1016.90 1017.51 1018.17 1018.31 1017.81 1016.92 1016.35 1015.79 1014.97 1014.54 1013.86 1012.17 1012.00 1012.52 1013.14 1013.53 1013.44 1013.55 1013.74 1014.03
1014.40 1014.39 1014.46 1014.44 1014.43 1015.31 1016.64 1017.02 1017.35 1017.17 1017.14 1016.67 1016.30 1016.17 1015.84 1015.50 1015.66 1015.92 1016.58 1017.59 1017.76 1017.66 1017.45 1017.12 1016.79 1016.68 1017.31 1018.18 1018.23 1017.67 1016.94 1016.59 1016.39 1016.06 1014.60 1013.65 1011.96 1012.28 1012.44 1012.84 1013.21 1013.37 1013.52 1013.48 1013.63
1014.99 1014.48 1014.44 1014.52 1015.47 1015.44 1016.06 1016.90 1017.30 1017.71 1017.52 1017.37 1017.02 1016.74 1016.32 1016.18 1016.38 1016.55 1017.15 1018.02 1018.40 1018.46 1018.67 1018.15 1017.01 1016.33 1016.04 1016.21 1016.23 1016.71 1016.57 1016.61 1016.30 1015.73 1014.04 1012.75 1011.76 1011.84 1011.95 1012.50 1012.96 1013.54 1013.61 1013.71 1013.81
1015.95 1016.76 1017.07 1015.74 1015.87 1016.10 1016.27 1016.85 1017.17 1017.44 1017.60 1017.49 1017.25 1017.15 1016.98 1016.71 1016.78 1016.96 1017.53 1018.14 1018.56 1018.90 1018.79 1018.50 1017.56 1017.12 1016.84 1016.56 1016.65 1016.51 1016.21 1016.22 1015.81 1014.73 1013.98 1012.45 1012.18 1011.91 1012.64 1013.51 1014.07 1014.33 1014.39 1014.52 1014.39
1016.78 1016.88 1017.18 1017.05 1016.97 1016.42 1016.74 1016.96 1017.11 1017.48 1017.67 1017.62 1017.47 1017.52 1017.41 1017.16 1017.29 1017.22 1017.49 1017.85 1017.95 1018.92 1018.72 1018.68 1017.94 1017.62 1016.79 1016.16 1016.39 1016.23 1015.80 1015.62 1015.26 1015.09 1014.67 1014.14 1013.44 1013.71 1014.46 1014.76 1015.07 1015.25 1015.58 1015.41 1015.17
1018.39 1018.28 1017.25 1017.06 1016.78 1016.83 1017.30 1017.52 1017.70 1017.93 1018.03 1017.80 1017.66 1017.57 1017.70 1017.98 1018.00 1017.95 1017.87 1017.98 1018.13 1018.17 1018.40 1018.51 1018.12 1017.75 1016.49 1016.48 1016.18 1015.28 1014.37 1014.35 1014.67 1014.79 1014.79 1014.49 1014.51 1015.30 1015.49 1015.92 1016.34 1016.55 1016.42 1016.23 1016.04
Wind_Speed
9 7 5 2 8 11 11 12 11 10 9 7 10 14 15 11 9 10 12 3 2 3 4 4 6 9 10 7 4 1 7 9 9 10 8 10 7 4 2 2 2 3 5 5 13
11 9 8 3 1 4 9 9 8 9 8 4 8 15 14 12 11 13 5 5 1 3 8 9 11 12 9 9 5 6 9 9 7 7 6 10 5 8 5 7 6 6 6 6 10
13 11 11 10 3 2 7 7 7 8 10 8 10 13 12 11 9 8 12 3 3 5 6 6 7 14 8 8 7 6 6 4 4 4 3 8 6 3 4 5 2 1 6 6 8
14 13 13 12 3 4 4 5 9 11 15 16 17 9 6 8 7 8 6 3 4 6 8 7 12 13 11 12 8 7 1 4 2 3 2 7 3 5 4 5 5 4 2 4 8
14 13 13 14 15 10 7 10 11 16 10 16 16 12 7 7 7 8 2 6 8 9 11 10 14 14 12 13 9 4 6 4 3 4 3 2 4 3 5 3 2 2 4 5 6
11 12 11 14 15 11 10 12 10 16 15 8 15 11 3 12 3 2 3 8 10 12 10 8 10 5 6 7 8 6 7 7 2 3 2 3 3 4 3 5 4 2 4 5 6
11 10 11 15 10 7 7 8 10 12 14 7 15 9 13 2 2 1 7 6 8 8 10 5 7 8 10 8 6 12 9 6 2 1 0 3 6 9 5 5 6 3 3 5 7
9 7 5 5 3 5 4 5 5 8 15 18 15 12 2 2 4 5 9 8 6 5 2 2 3 4 2 10 7 7 4 6 5 2 2 4 3 5 6 8 8 5 5 5 8
10 9 7 2 2 3 1 2 5 6 7 9 8 12 5 4 3 2 4 8 9 7 5 4 2 3 5 9 7 6 8 12 5 1 2 6 4 5 7 7 8 9 7 5 6
9 9 9 8 7 8 7 2 1 6 9 9 6 7 4 3 2 2 5 5 5 10 7 4 4 6 6 10 10 12 8 4 6 3 4 7 13 7 8 10 11 10 6 5 6
11 8 7 10 7 5 3 4 6 5 4 5 4 6 8 3 5 4 1 7 7 7 8 5 4 8 11 2 4 3 7 6 5 2 4 7 11 12 10 10 11 9 4 3 6
11 9 6 7 8 1 4 3 3 4 8 5 3 7 3 3 7 6 3 4 6 7 3 5 5 5 2 1 5 4 5 4 5 2 4 8 15 14 10 7 4 2 3 6 7
12 12 6 7 5 3 3 4 4 4 3 4 4 4 2 6 6 7 5 2 3 4 1 4 6 1 2 4 6 4 4 3 2 3 4 10 14 7 4 3 3 2 2 6 9
10 12 8 1 1 1 2 2 3 4 2 8 5 5 2 3 6 5 5 3 3 7 8 7 2 1 3 4 6 4 4 3 2 4 3 3 7 7 9 6 5 6 7 7 8
7 10 4 4 3 2 4 4 3 3 3 6 4 4 4 3 6 6 4 4 6 6 3 2 3 3 3 4 6 6 1 3 2 2 4 6 3 3 3 6 8 8 8 8 8
9 6 3 3 2 2 2 3 2 2 4 2 3 4 3 7 4 2 1 7 3 7 13 6 2 4 4 5 5 7 2 1 1 2 3 3 3 5 3 1 4 9 9 9 8
8 9 3 1 2 2 2 4 1 4 2 3 4 4 5 5 5 3 2 5 2 4 1 4 3 3 1 2 2 3 0 0 1 2 2 3 3 7 3 2 1 10 11 10 10
3 6 5 4 2 3 2 2 4 1 2 2 2 3 4 4 3 2 4 5 3 2 4 5 3 2 2 3 2 2 3 2 4 3 2 4 7 2 4 1 2 5 9 10 10
3 1 2 5 3 3 4 5 4 4 4 3 3 1 3 2 1 2 2 3 3 4 3 4 3 3 3 2 3 4 4 3 3 1 3 5 5 7 2 3 3 5 7 9 9
3 3 3 4 3 4 3 4 3 3 4 3 3 4 3 3 3 3 4 3 2 3 4 2 3 0 3 2 3 4 2 2 2 3 5 5 4 2 3 1 4 6 9 10 10
4 3 3 4 3 1 4 5 4 2 2 4 4 2 4 2 2 2 3 3 2 2 2 2 3 4 1 5 0 3 3 2 4 3 4 6 2 2 5 0 3 6 9 11 12
3 3 3 4 1 3 4 4 2 2 1 2 1 4 4 3 2 2 2 4 3 3 2 4 4 3 3 3 2 4 3 6 3 4 1 4 6 3 4 4 2 3 3 8 9
2 3 2 4 4 5 3 4 4 4 5 4 2 4 1 2 0 1 2 2 2 2 2 1 2 3 4 4 3 6 9 7 2 2 7 5 1 4 6 6 4 6 9 11 7
4 2 4 5 3 7 4 3 3 2 3 2 2 2 0 1 3 1 1 2 3 2 4 3 3 7 5 3 3 5 9 12 10 5 7 13 14 9 5 6 11 11 8 6 8
5 5 4 4 6 5 1 1 2 1 1 1 2 3 2 0 1 1 1 2 2 2 1 4 5 2 9 8 6 9 10 14 17 18 10 15 14 13 14 11 6 9 7 9 10
3 1 2 3 4 2 2 2 1 3 2 2 2 1 0 1 2 1 2 4 1 4 3 3 2 2 5 1 7 13 15 17 19 20 19 21 22 10 8 9 9 10 9 10 11
2 1 5 3 2 4 5 2 1 2 1 1 1 1 1 3 4 5 6 4 3 3 6 3 3 1 4 2 7 13 12 18 12 11 10 14 9 8 6 6 6 7 9 11 12
Wind_Direction
27 33 40 335 251 242 242 239 229 210 209 235 239 194 180 157 157 200 222 37 127 152 264 203 212 200 196 182 215 231 249 228 209 216 137 156 163 145 84 172 179 93 37 70 120
27 21 14 350 317 274 210 179 169 184 185 174 193 171 159 158 197 219 131 105 245 233 213 191 184 179 192 186 188 227 241 238 21 39 156 169 192 153 200 186 183 160 113 124 147
22 23 32 9 206 192 174 170 186 208 183 142 171 155 148 194 214 233 139 171 227 239 230 236 213 192 184 175 183 176 263 96 73 50 135 154 158 176 217 211 360 180 146 159 181
21 38 38 17 130 133 144 179 150 125 116 102 100 92 101 244 217 95 124 235 216 218 186 198 210 195 192 193 165 182 79 340 130 49 180 174 119 205 242 66 90 85 61 179 198
26 40 36 37 56 71 94 87 84 100 91 113 122 112 58 233 255 137 192 211 193 188 189 193 185 197 203 184 177 202 134 99 82 78 51 326 221 312 233 148 204 222 209 217 218
24 21 47 53 50 49 67 123 137 128 107 119 123 111 245 245 67 178 203 183 186 189 179 207 201 223 172 159 213 114 131 120 81 67 50 284 237 296 157 150 140 132 205 213 221
16 27 36 55 28 23 74 105 113 110 125 102 149 201 236 313 10 149 180 180 174 191 175 201 293 224 152 140 132 134 123 137 115 18 253 313 240 234 148 181 166 175 215 241 236
9 33 49 85 62 49 43 107 140 155 176 196 204 220 277 79 336 191 167 143 155 141 108 87 227 123 311 118 126 164 175 191 120 271 160 275 267 153 164 188 213 226 263 269 246
358 352 347 51 50 48 334 252 193 202 192 205 197 229 90 117 185 92 192 137 131 121 100 115 278 124 159 177 151 189 202 217 151 103 286 234 292 125 186 210 238 255 278 273 233
356 341 328 338 350 347 327 290 164 189 201 196 245 215 167 108 81 114 109 126 129 130 126 177 209 180 197 192 187 187 207 214 222 106 240 242 260 246 197 230 262 276 282 275 213
353 347 336 329 336 318 239 211 200 161 68 18 47 93 100 77 209 84 57 132 135 180 164 165 194 187 187 17 27 113 207 211 110 104 286 252 272 272 258 247 266 257 267 211 180
350 337 340 329 331 313 277 326 19 16 83 51 53 92 67 315 128 65 292 172 180 144 143 174 155 54 73 165 116 135 178 155 119 128 284 290 279 269 271 259 282 259 191 156 140
346 330 357 316 280 257 94 86 350 303 122 64 47 17 9 326 45 20 346 99 93 104 137 163 87 125 219 139 141 63 303 92 4 301 234 292 263 198 188 192 165 179 108 151 160
343 331 352 307 199 103 43 5 316 335 114 29 9 51 347 335 67 7 12 15 60 95 75 73 79 121 130 90 328 170 41 67 6 324 301 336 294 205 169 189 206 173 174 151 146
353 340 345 7 71 245 50 313 318 250 93 358 10 332 4 65 133 47 14 37 76 85 229 71 99 81 93 18 328 69 58 48 17 323 320 166 255 242 105 217 209 196 175 162 156
346 10 306 220 93 55 318 274 247 257 64 50 333 346 143 52 68 118 104 68 57 73 66 87 92 25 59 60 47 130 171 118 138 287 235 76 245 276 186 55 173 184 173 167 160
347 5 33 318 28 324 279 246 10 44 258 29 16 6 82 41 73 33 86 84 68 91 38 129 55 92 329 148 151 238 241 159 269 198 289 177 243 267 148 150 264 188 180 175 170
47 312 19 40 18 293 244 208 58 315 38 118 299 82 67 353 66 80 114 118 73 289 151 161 205 177 34 336 333 169 274 278 261 252 37 175 237 247 107 251 188 246 181 177 182
198 106 11 8 338 267 251 49 36 14 354 333 189 127 105 99 14 140 64 85 49 4 288 161 127 131 47 325 307 136 216 23 300 174 258 224 241 163 19 182 202 196 184 192 196
200 183 45 338 304 246 80 82 66 11 331 281 356 325 144 99 194 211 178 50 79 13 332 76 118 29 94 287 85 312 29 190 197 262 252 215 263 289 31 245 200 200 210 206 205
242 216 75 175 200 263 82 89 105 68 354 356 31 48 46 78 358 91 72 100 38 41 336 329 276 107 219 197 232 152 212 236 301 279 291 306 96 91 183 140 230 213 211 217 215
270 46 110 181 53 58 58 46 342 67 86 97 38 43 39 44 77 85 76 39 17 347 1 32 325 159 54 84 334 302 287 249 251 163 297 300 282 119 57 33 356 313 271 251 232
32 14 138 233 61 66 86 81 47 21 23 6 55 11 4 100 170 87 110 63 18 338 351 65 207 204 180 177 193 233 202 230 200 313 238 271 231 126 120 107 84 322 313 308 246
304 21 25 58 49 101 109 63 97 75 74 20 41 318 286 75 25 113 124 86 8 360 8 309 276 263 283 36 108 195 206 211 205 202 236 228 267 242 258 314 336 346 315 290 285
9 44 4 19 50 67 110 88 107 98 88 30 114 57 17 317 134 148 78 158 165 120 292 299 283 316 297 285 252 266 237 212 214 225 241 266 277 298 330 341 349 323 345 328 316
12 320 150 57 344 322 345 53 126 132 320 64 351 74 281 296 348 46 195 215 259 176 219 177 261 333 276 276 259 257 253 250 242 247 258 271 281 333 17 343 335 358 356 353 349
49 172 280 158 80 303 31 55 5 309 60 29 38 257 267 41 0 341 307 302 327 282 210 231 254 269 263 334 305 267 250 235 230 242 256 255 277 7 2 19 41 32 19 15 7